Home   Weather   Bayreuth   Past weeks

Flag for Germany Past Weather in Bayreuth, Bavaria, Germany — Yesterday and Last 2 Weeks

Now
45 °F

Mostly cloudy.


Feels Like: 39 °F
Forecast: 26 / 56 °F
Wind: 12 mph from West

Location: Grafenwoehr

Current Time: Apr 23, 2017 at 3:56:12 pm

Latest Report: Apr 23, 2017 at 2:58 pm


Visibility: N/A

Pressure: 30.21 "Hg

Humidity: 42%

Dew Point: 23 °F

Location of BayreuthLocation

Past Weather in Bayreuth — Graph

°F

Bayreuth Temperature Yesterday

Maximum temperature yesterday: 48 °F (at 12:58 am)
Minimum temperature yesterday: 40 °F (at 11:59 pm)
Average temperature yesterday: 46 °F

High & Low Weather Summary for the Past Weeks

 TemperatureHumidityPressure
High72 °F (Apr 10, 12:58 pm)100% (Apr 9, 4:58 am)30.58 "Hg (Apr 9, 4:58 am)
Low21 °F (Apr 21, 4:58 am)27% (Apr 10, 4:58 pm)29.82 "Hg (Apr 13, 3:58 am)
Average44 °F70%30.12 "Hg
* Reported Apr 8 1:58 pm — Apr 23 1:59 pm, Bayreuth, Weather by CustomWeather, © 2017

Note: Actual official high and low records may vary slightly from our data, if they occured in-between our weather recording intervals... More about our weather records

Advertising

Bayreuth Weather History for the Previous 24 Hours

Scroll right to see more
 ConditionsComfort  
Time TempWeatherWind HumidityBarometerVisibility
1:59 pm
Sun, Apr 23
43 °FMostly cloudy.10 mph49%30.22 "HgN/A
12:58 pm43 °FOvercast.12 mph53%30.23 "HgN/A
11:59 am41 °FMore clouds than sun.12 mph53%30.22 "HgN/A
10:59 am41 °FCloudy.8 mph57%30.22 "HgN/A
9:59 am41 °FMostly cloudy.6 mph57%30.22 "HgN/A
9:08 am39 °FMostly cloudy.10 mph65%30.17 "HgN/A
9:05 am39 °FPartly sunny.9 mph65%30.17 "HgN/A
7:59 am37 °FPassing clouds.5 mph75%30.22 "HgN/A
6:58 am30 °FPassing clouds.No wind86%30.21 "HgN/A
5:59 am31 °FPassing clouds.No wind85%30.18 "HgN/A
4:58 am34 °FOvercast.No wind75%30.16 "HgN/A
3:59 am37 °FOvercast.3 mph70%30.16 "HgN/A
2:59 am39 °FOvercast.6 mph64%30.15 "HgN/A
1:58 am39 °FOvercast.5 mph65%30.16 "HgN/A
12:59 am39 °FPassing clouds.6 mph65%30.16 "HgN/A
11:59 pm
Sat, Apr 22
40 °FOvercast.7 mph61%30.15 "HgN/A
10:58 pm41 °FMostly cloudy.7 mph61%30.15 "HgN/A
9:59 pm42 °FOvercast.3 mph62%30.14 "HgN/A
7:59 pm45 °FOvercast.3 mph61%30.12 "HgN/A
6:58 pm45 °FOvercast.10 mph57%30.12 "HgN/A
5:58 pm46 °FOvercast.9 mph62%30.11 "HgN/A
4:59 pm46 °FCloudy.12 mph65%30.11 "HgN/A
3:59 pm46 °FMore clouds than sun.13 mph71%30.12 "HgN/A
3:38 pm45 °FCloudy.8 mph81%30.10 "HgN/A
3:05 pm45 °FOvercast.7 mph87%30.10 "HgN/A
Weather by CustomWeather, © 2017

See weather overviewHow to use our weather pages